Theta_e
334 336 336 337 335 338 338 339 339 341 343 344 345 343 343 342 342 343 345 346 347 352 353 355 352 353 350 348 346 344 342 344 347 339 337 337 338 340 341 345 344 343 347
332 334 336 335 335 335 338 342 342 342 344 346 347 344 343 342 341 341 343 345 347 352 354 351 351 351 347 346 344 342 343 344 343 337 333 329 332 337 340 339 342 342 344
329 330 333 333 334 335 337 341 343 342 344 345 343 341 342 342 340 340 341 345 351 354 352 351 350 350 346 341 340 338 342 340 342 340 335 327 324 326 331 334 337 340 342
329 330 330 331 332 336 338 341 343 343 344 347 345 340 339 338 339 340 342 344 350 354 354 352 350 348 346 345 343 341 340 342 339 341 345 339 333 323 324 331 333 336 338
329 329 328 332 332 337 338 340 342 344 346 347 346 343 336 337 338 340 342 343 344 352 355 354 350 350 349 347 343 339 335 334 337 340 338 336 332 331 328 327 329 337 340
332 330 330 331 331 336 339 340 341 344 346 347 346 343 340 338 337 337 340 342 342 344 349 351 351 353 351 349 347 343 341 341 343 345 342 337 333 332 332 332 332 332 339
334 332 329 327 328 334 337 339 340 342 344 345 345 343 341 340 339 339 340 339 340 344 346 347 347 351 354 353 347 344 341 336 333 336 344 344 342 340 336 332 333 332 337
332 334 330 329 329 332 336 338 338 340 342 344 344 343 342 341 342 341 341 342 343 343 345 347 348 352 355 352 347 344 343 340 339 340 344 346 345 338 332 333 333 332 335
330 333 333 330 330 331 336 337 338 339 341 342 343 343 344 344 343 343 341 343 345 346 345 346 348 350 352 350 346 345 342 341 345 346 348 346 345 339 335 336 337 336 330
330 330 330 330 329 330 333 338 338 339 340 342 342 341 342 344 343 348 349 349 349 347 348 350 352 349 349 348 344 338 336 336 336 337 344 345 340 341 340 337 337 337 334
337 337 337 335 331 331 335 338 339 339 340 342 342 342 342 342 344 346 347 346 345 343 342 347 348 343 344 345 342 340 340 338 336 335 345 345 339 337 336 335 336 335 335
337 339 338 337 336 337 335 337 339 340 340 343 344 344 348 348 346 344 340 340 341 341 340 341 342 345 341 340 337 339 346 339 337 341 344 344 341 341 335 337 336 336 339
338 338 336 335 337 337 336 337 340 340 344 343 345 346 351 348 345 340 336 340 341 338 337 335 335 337 342 340 340 340 338 338 338 337 339 340 340 340 341 339 338 341 342
339 340 333 332 339 336 337 339 338 341 344 345 346 345 346 346 337 339 339 339 339 336 334 334 334 335 337 337 337 336 335 335 337 337 336 335 336 338 340 339 338 336 335
329 338 338 338 338 337 335 334 333 332 335 335 336 338 337 339 339 336 337 338 337 336 334 334 333 333 334 335 334 334 333 334 334 336 336 337 338 338 337 336 332 329 328
326 326 327 334 336 335 332 334 330 327 328 330 332 336 336 336 335 333 331 332 333 334 335 332 332 332 335 331 332 333 330 332 331 332 332 334 332 333 333 333 333 330 323
326 324 326 331 338 334 333 332 332 329 329 330 332 334 335 334 334 333 330 330 330 331 331 336 331 326 324 325 327 329 327 330 330 329 328 330 327 325 325 328 329 329 329
324 325 325 329 333 338 334 333 331 328 328 328 329 330 332 332 333 332 330 329 330 332 333 329 323 319 319 321 322 325 323 322 324 324 323 322 319 320 321 321 320 319 319
326 326 327 330 333 338 334 333 332 329 328 327 327 329 332 331 331 329 328 329 328 328 329 326 320 315 314 318 318 320 317 317 317 318 316 315 314 319 318 312 311 310 311
321 319 332 333 334 341 337 334 331 332 329 329 329 330 331 330 331 331 329 327 326 325 327 325 319 318 315 315 316 316 314 314 315 315 315 319 313 313 313 308 307 305 305
325 322 325 325 328 327 333 334 335 332 332 331 331 332 333 331 330 326 326 324 322 323 322 322 319 316 316 314 314 315 316 316 315 314 311 309 312 309 308 309 307 306 307
316 317 317 318 319 317 320 321 320 333 334 334 334 333 330 330 327 324 321 320 319 318 317 320 320 317 315 313 313 313 315 317 312 309 306 306 309 306 307 308 309 309 311
314 317 317 317 319 316 318 319 326 331 333 330 330 328 326 324 322 321 316 310 312 314 314 318 321 316 315 313 312 312 313 315 310 307 309 311 308 308 311 312 312 312 311
316 319 319 319 318 320 319 322 329 330 328 328 326 325 323 320 319 319 312 305 308 311 315 316 314 312 312 312 309 307 305 309 306 308 306 310 311 312 311 309 310 310 309
319 319 320 318 317 320 318 327 328 327 323 323 321 320 319 316 310 307 304 305 304 311 313 311 312 309 307 307 306 304 304 303 303 303 304 304 305 305 305 307 308 307 307
314 320 319 318 318 318 319 321 327 325 322 319 319 319 318 314 311 307 304 306 305 305 305 305 309 307 303 299 301 297 296 297 299 303 302 302 303 304 303 303 304 304 305
Wind_Speed
20 18 16 15 13 15 15 18 17 16 11 6 7 5 8 4 4 5 7 6 5 6 6 4 4 3 4 4 3 2 4 3 3 2 2 3 4 5 3 2 2 5 2
16 17 18 15 16 16 16 17 18 16 14 11 9 4 4 3 2 2 4 5 6 6 6 8 5 5 4 4 4 2 1 1 4 3 0 3 4 3 4 3 3 5 2
19 15 19 16 14 17 17 17 18 17 15 15 5 3 4 2 2 2 3 4 7 6 7 7 5 5 4 4 4 4 5 3 3 5 3 1 4 3 1 3 4 4 1
17 15 15 16 18 19 15 16 16 15 14 12 10 8 6 6 5 4 4 5 6 7 7 7 7 5 4 6 5 5 4 4 4 2 4 1 3 2 5 3 2 3 5
17 18 18 20 15 14 14 13 14 13 13 13 13 10 5 5 3 3 5 5 5 7 8 8 7 7 5 6 6 5 5 4 3 3 3 1 2 2 3 3 3 2 2
19 19 17 12 11 11 13 13 14 14 12 13 13 13 12 8 5 5 4 5 3 4 6 5 6 6 6 7 5 6 7 6 4 3 4 4 4 4 3 3 2 2 2
20 21 15 13 11 15 16 14 15 15 14 15 14 13 13 12 11 9 6 5 3 4 6 6 6 5 7 7 6 6 6 6 5 6 4 4 5 4 4 3 4 3 3
14 15 14 16 15 15 16 16 16 15 14 15 15 13 13 9 9 8 5 5 4 4 4 6 6 8 9 7 7 5 6 6 5 7 5 3 5 5 4 5 5 3 2
2 13 11 14 13 12 16 18 16 15 15 16 13 13 12 12 11 6 5 4 5 5 7 6 7 7 8 8 8 7 7 5 5 6 4 5 4 5 5 4 3 4 3
7 6 6 3 1 1 5 8 11 16 9 11 12 11 13 10 7 7 7 6 3 1 5 5 6 6 6 7 8 5 4 6 4 4 5 5 3 4 3 4 4 3 2
8 6 6 7 7 7 8 8 10 12 8 9 7 7 7 8 9 8 7 3 3 4 5 5 4 1 2 3 5 6 6 7 5 5 5 7 6 4 3 2 2 4 4
10 9 7 6 5 4 8 9 10 11 11 10 10 12 9 10 9 7 9 9 9 4 3 4 6 4 5 4 1 6 3 5 5 5 5 6 4 5 5 3 5 5 6
6 3 5 8 5 5 2 5 3 6 12 12 14 12 13 11 8 8 6 6 8 0 5 4 4 4 4 7 6 2 5 5 3 4 2 1 3 3 4 4 3 3 2
4 7 5 15 19 3 7 10 8 7 5 12 10 11 7 7 10 8 9 8 3 5 5 5 5 8 10 8 10 8 9 7 4 5 4 5 4 4 2 4 4 3 2
8 9 7 5 1 6 6 4 3 3 6 10 9 6 8 11 11 7 5 1 9 4 5 6 3 2 7 7 10 9 8 3 3 4 6 3 4 5 3 3 6 3 0
9 8 9 8 6 7 3 3 3 4 7 11 11 13 14 12 6 4 6 5 4 4 4 5 5 4 4 7 6 7 9 6 5 4 1 3 8 7 4 4 8 5 5
4 2 3 6 4 1 4 4 4 6 7 7 5 11 14 14 14 9 6 6 6 5 5 6 5 5 6 7 8 8 3 2 6 5 3 3 2 6 4 8 8 7 6
8 8 6 6 5 5 6 5 4 5 6 8 7 3 6 7 16 9 7 4 4 6 6 7 7 6 4 6 8 8 6 5 5 5 5 4 4 6 5 5 4 3 3
7 7 7 7 6 5 5 6 7 6 8 8 6 4 6 6 8 9 8 6 5 5 6 7 8 7 5 8 10 8 7 7 7 6 5 4 5 6 7 5 3 5 5
7 9 8 5 6 5 6 7 7 9 9 9 9 9 8 8 7 7 8 4 4 7 5 7 7 8 7 9 10 8 5 6 5 5 5 7 5 7 7 2 2 4 5
12 10 9 9 9 7 1 5 7 8 5 7 7 7 8 6 5 5 3 5 7 6 5 8 5 7 7 7 9 9 5 5 5 3 3 4 7 7 5 4 3 5 3
13 12 11 10 6 6 8 7 6 5 11 10 8 9 9 10 5 8 3 6 7 5 5 7 7 4 6 9 6 8 7 5 5 3 1 4 9 7 4 0 2 4 1
9 10 9 11 13 10 11 13 10 11 12 12 11 10 9 10 5 8 8 6 5 5 4 6 8 5 4 5 7 10 8 7 4 0 4 8 9 10 7 8 8 7 4
7 8 8 15 19 17 14 15 11 12 9 13 11 9 11 9 5 5 7 6 5 5 6 7 8 6 5 4 3 4 3 5 4 4 4 4 3 5 4 4 5 4 2
9 11 12 11 13 16 14 7 10 13 10 9 5 6 7 10 8 6 6 5 2 6 7 5 8 7 4 4 5 6 3 2 3 2 3 3 3 3 3 3 3 3 3
8 7 8 9 14 19 11 12 12 11 11 9 7 4 5 7 8 8 6 10 4 10 8 9 8 3 3 11 9 7 5 5 2 3 2 2 1 0 2 2 3 2 3
Wind_Direction
211 209 214 214 190 197 189 195 192 195 175 173 185 191 201 201 210 197 204 221 235 225 211 218 238 217 187 214 199 149 176 206 135 126 315 286 277 295 275 241 221 274 322
212 207 210 209 205 195 190 188 192 185 186 190 193 182 171 200 185 203 216 223 245 239 202 211 213 200 180 185 206 164 161 274 155 145 117 328 334 287 243 234 236 244 264
211 204 204 202 198 202 194 191 188 185 187 190 141 92 85 67 128 236 234 224 230 231 210 205 182 206 191 214 178 190 185 227 186 193 157 141 250 307 271 207 232 204 213
217 213 205 199 197 205 191 191 190 184 187 173 176 176 176 181 208 197 189 222 226 230 214 199 192 194 182 215 189 195 198 177 214 184 210 129 184 191 330 352 332 229 227
212 212 205 206 201 193 189 187 186 185 182 183 186 183 175 195 190 186 202 232 242 233 225 207 179 192 202 228 181 174 213 192 180 191 152 146 235 160 151 289 320 350 314
212 213 213 202 186 184 185 179 181 187 179 182 188 187 192 189 191 213 208 227 236 264 235 221 194 199 198 218 211 189 197 208 213 216 201 172 178 197 176 201 247 204 253
208 208 196 186 175 183 184 179 179 187 182 184 189 192 196 193 200 204 202 210 221 228 243 225 206 204 208 211 192 192 191 196 205 205 220 222 213 162 178 159 198 200 220
207 198 194 194 189 188 187 183 184 187 184 187 191 194 194 198 210 207 190 209 205 213 201 211 219 217 206 204 193 199 200 178 216 239 220 219 220 188 176 173 158 186 153
218 196 202 198 193 183 190 189 187 190 188 193 188 194 192 198 209 206 189 186 194 222 227 224 218 213 206 200 194 206 202 177 206 229 232 228 205 194 187 181 170 149 164
81 91 111 146 4 152 187 185 194 200 194 192 203 196 198 196 183 165 168 190 229 307 255 241 212 220 220 210 190 201 189 199 230 239 227 202 223 186 183 189 156 133 112
53 84 103 119 142 151 171 180 196 198 192 202 186 210 199 191 182 167 144 144 52 341 3 0 298 331 263 242 232 213 215 203 232 244 243 208 204 167 154 188 149 173 128
16 32 5 40 73 116 123 184 190 191 179 183 187 210 186 178 176 142 146 162 163 134 334 334 328 279 217 163 227 285 247 211 231 269 245 235 163 156 162 204 221 215 181
83 52 50 29 52 36 99 142 172 199 192 185 180 185 181 173 162 125 93 41 72 239 98 138 55 10 204 128 95 82 50 47 58 43 19 295 174 176 166 176 200 257 165
24 112 60 68 299 23 16 343 3 329 223 190 180 167 162 137 112 118 129 141 115 236 192 101 137 114 94 93 98 81 68 40 10 23 46 20 342 275 141 112 104 289 163
336 356 32 11 351 281 55 49 354 111 96 78 82 88 89 83 90 83 28 77 132 146 116 120 109 104 120 124 127 117 88 127 73 18 343 344 286 268 226 160 117 180 243
336 2 348 331 327 357 45 344 10 32 81 108 120 112 99 100 78 112 140 260 112 149 141 130 107 80 61 62 65 112 136 133 118 103 102 47 20 28 51 157 143 176 160
338 214 275 289 291 106 180 189 158 108 96 112 122 131 137 147 70 245 199 190 184 167 161 121 116 100 97 111 116 109 78 123 133 109 220 104 75 71 74 53 60 62 74
321 313 291 292 273 185 171 149 127 107 115 115 133 149 145 147 134 183 203 189 194 163 141 120 112 93 76 94 97 100 102 80 43 79 65 76 48 44 73 72 55 26 19
280 276 271 265 267 224 168 157 158 158 150 153 163 180 131 139 148 168 178 180 163 145 120 132 109 107 91 87 86 84 76 69 62 61 61 73 64 40 55 64 31 334 318
282 293 302 300 279 251 179 182 190 183 185 166 169 150 146 151 178 174 162 164 152 107 131 111 117 127 104 84 94 103 111 97 94 55 49 52 41 4 354 347 307 299 283
301 322 333 316 329 348 164 190 192 189 169 128 149 169 149 126 159 173 194 132 104 113 105 107 115 104 103 93 93 94 92 109 110 80 16 328 324 317 304 258 226 241 311
329 335 318 300 291 279 301 292 270 185 172 162 167 183 152 124 167 132 113 86 97 111 121 116 101 95 95 101 110 104 103 126 104 106 275 297 318 325 336 63 300 273 27
311 315 310 310 292 237 234 251 254 181 172 155 156 138 130 114 158 133 106 91 113 116 119 118 126 118 99 96 89 81 82 82 90 323 321 335 357 9 46 75 95 82 72
315 310 325 334 349 277 225 223 181 147 145 147 147 145 126 133 159 124 103 117 124 116 121 122 124 132 112 111 106 102 82 63 63 9 4 9 29 42 37 28 25 49 73
313 314 315 314 351 348 220 186 167 129 130 125 131 154 135 131 108 66 106 125 183 149 132 143 136 124 139 185 150 145 141 99 43 22 5 12 14 21 21 8 11 7 24
305 328 333 335 8 13 234 192 149 139 131 135 146 165 156 116 111 112 81 22 114 126 119 138 125 96 91 129 127 106 86 105 36 84 36 340 336 281 310 325 319 329 358